Sabadell, Spain

11:38 PM CEST en Octubre 16, 2018 (GMT +0200)
Sabadell

Tiempo Historia de LELL - Febrero, 2018

Change the Weather History Date:

Martes, Febrero 13, 2018

  Actual Average (WUND) Record (WUND)
Temperature  
Temperatura media 40 ° F -  
Temperatura máxima 50 ° F - - (-1)
Temperatura mínima 30 ° F - - (-1)
Degree Days  
Grados día de calefacción 25    
Moisture  
Punto de rocío 32 ° F    
Average Humidity 77    
Maximum Humidity 100    
Minimum Humidity 50    
Precipitación  
Precipitación 0.00 pul - - ()
Presión al nivel del mar  
Presión al nivel del mar 30.01 pul    
Viento  
Velocidad del viento 4 mph ()    
Velocidad máxima del viento 18 mph    
Max Gust Speed 31 mph    
Visibilidad 6.2 Millas    
Eventos      
Averages and records for this station are not official NWS values.
T = Trace of Precipitation, MM = Missing Value Source: Averaged Metar Reports

Daily Weather History Graph

Daily Weather History Graph

Search for Another Location

Airport or City:

Astronomía

Feb. 13, 2018 Salida Puesta
Hora real 7:49 AM CET 6:22 PM CET
Crepúsculo civil 7:21 AM CET 6:51 PM CET
Crepúsculo náutico 6:48 AM CET 7:23 PM CET
Crepúsculo astronómico 6:16 AM CET 7:55 PM CET
Luna 6:18 AM CET (2/13) 4:14 PM CET (2/13)
Horas de luz 11h 29m
Horas de luz
10h 32m
Creciente menguante, 5% of the Moon is Illuminated
Feb 13
Creciente menguante
Feb 15
Nueva
Feb 23
Cuarto creciente
Mar 2
Luna llena
Mar 9
Cuarto menguante

Hourly Weather History & Observations

Hora (CET) Temp. Vientos helados Punto de rocío Humedad Presión Visibilidad Wind Dir Velocidad del viento Velocidad de ráfagas Precip Eventos Condiciones
12:00 AM 35.6 ° F - 35.6 ° F 100% 30.09 pul 6.2 mi Variable 2.3 mph - N/A   Nubes dispersas
12:30 AM 35.6 ° F - 35.6 ° F 100% 30.09 pul 6.2 mi Variable 2.3 mph - N/A   Nubes dispersas
1:00 AM 35.6 ° F - 35.6 ° F 100% 30.09 pul 5.6 mi Variable 1.2 mph - N/A   Muy nublado
1:30 AM 35.6 ° F - 35.6 ° F 100% 30.09 pul 6.2 mi Sin viento Sin viento - N/A   Nublado
2:00 AM 35.6 ° F - 33.8 ° F 93% 30.09 pul 6.2 mi Sin viento Sin viento - N/A   Nubes dispersas
2:30 AM 35.6 ° F - 33.8 ° F 93% 30.09 pul 6.2 mi Sin viento Sin viento - N/A   Muy nublado
3:00 AM 33.8 ° F - 33.8 ° F 100% 30.09 pul 6.2 mi Sin viento Sin viento - N/A   Desconocido
3:30 AM 33.8 ° F - 32.0 ° F 93% 30.09 pul 6.2 mi Variable 2.3 mph - N/A   Desconocido
4:30 AM 32.0 ° F - 30.2 ° F 93% 30.09 pul 6.2 mi Oeste 2.3 mph - N/A   Desconocido
5:00 AM 32.0 ° F - 32.0 ° F 100% 30.09 pul 6.2 mi Variable 1.2 mph - N/A   Desconocido
5:30 AM 30.2 ° F - 30.2 ° F 100% 30.09 pul 6.2 mi Sin viento Sin viento - N/A   Desconocido
6:00 AM 32.0 ° F - 32.0 ° F 100% 30.09 pul 6.2 mi Variable 1.2 mph - N/A   Desconocido
6:30 AM 32.0 ° F 27.5 ° F 30.2 ° F 93% 30.09 pul 6.2 mi OSO 4.6 mph - N/A   Desconocido
7:00 AM 32.0 ° F - 30.2 ° F 93% 30.09 pul 6.2 mi ONO 2.3 mph - N/A   Desconocido
7:30 AM 30.2 ° F - 28.4 ° F 93% 30.09 pul 6.2 mi Variable 1.2 mph - N/A   Desconocido
8:00 AM 30.2 ° F - 28.4 ° F 93% 30.09 pul - Sin viento Sin viento - N/A   Despejado
8:30 AM 32.0 ° F - 30.2 ° F 93% 30.09 pul - Sin viento Sin viento - N/A   Despejado
9:00 AM 33.8 ° F - 32.0 ° F 93% 30.09 pul - Sin viento Sin viento - N/A   Despejado
9:30 AM 35.6 ° F - 32.0 ° F 87% 30.09 pul - Sin viento Sin viento - N/A   Despejado
10:00 AM 39.2 ° F - 32.0 ° F 75% 30.06 pul - Sur 1.2 mph - N/A   Despejado
10:30 AM 39.2 ° F - 32.0 ° F 75% 30.06 pul - Variable 2.3 mph - N/A   Despejado
11:00 AM 41.0 ° F 35.8 ° F 30.2 ° F 65% 30.06 pul - Oeste 8.1 mph - N/A   Despejado
11:30 AM 41.0 ° F 34.3 ° F 32.0 ° F 70% 30.04 pul - Oeste 11.5 mph - N/A   Despejado
12:00 PM 42.8 ° F 37.0 ° F 33.8 ° F 70% 30.04 pul - Oeste 10.4 mph - N/A   Despejado
12:30 PM 44.6 ° F 38.1 ° F 28.4 ° F 53% 30.01 pul - OSO 13.8 mph - N/A   Despejado
1:00 PM 44.6 ° F 38.8 ° F 32.0 ° F 61% 30.01 pul - Oeste 11.5 mph - N/A   Despejado
1:30 PM 44.6 ° F 40.2 ° F 33.8 ° F 66% 29.98 pul - Oeste 8.1 mph - N/A   Despejado
2:00 PM 46.4 ° F 41.5 ° F 32.0 ° F 57% 29.98 pul - Oeste 10.4 mph - N/A   Despejado
2:30 PM 48.2 ° F - 32.0 ° F 54% 29.95 pul - OSO 11.5 mph - N/A   Despejado
3:00 PM 50.0 ° F - 32.0 ° F 50% 29.92 pul 6.2 mi OSO 13.8 mph - N/A   Parcialmente nublado
3:30 PM 48.2 ° F - 30.2 ° F 50% 29.92 pul 6.2 mi OSO 17.3 mph - N/A   Parcialmente nublado
4:00 PM 46.4 ° F 39.2 ° F 30.2 ° F 53% 29.92 pul 6.2 mi OSO 18.4 mph 31.1 mph N/A   Parcialmente nublado
4:30 PM 46.4 ° F 39.5 ° F 32.0 ° F 57% 29.92 pul 6.2 mi OSO 17.3 mph 28.8 mph N/A   Parcialmente nublado
5:00 PM 46.4 ° F 39.8 ° F 32.0 ° F 57% 29.92 pul 6.2 mi OSO 16.1 mph 27.6 mph N/A   Parcialmente nublado
5:30 PM 46.4 ° F 40.1 ° F 32.0 ° F 57% 29.92 pul 6.2 mi OSO 15.0 mph - N/A   Parcialmente nublado
6:00 PM 44.6 ° F 38.1 ° F 32.0 ° F 61% 29.89 pul 6.2 mi Oeste 13.8 mph 28.8 mph N/A   Parcialmente nublado
6:30 PM 42.8 ° F 38.0 ° F 33.8 ° F 70% 29.92 pul 6.2 mi Oeste 8.1 mph - N/A   Desconocido
7:00 PM 42.8 ° F 40.1 ° F 33.8 ° F 70% 29.92 pul 6.2 mi Oeste 4.6 mph - N/A   Desconocido
7:30 PM 42.8 ° F 37.0 ° F 32.0 ° F 66% 29.92 pul 6.2 mi Oeste 10.4 mph - N/A   Desconocido
8:00 PM 42.8 ° F 36.2 ° F 32.0 ° F 66% 29.92 pul 6.2 mi Oeste 12.7 mph - N/A   Desconocido
8:30 PM 42.8 ° F 39.3 ° F 32.0 ° F 66% 29.92 pul 6.2 mi SO 5.8 mph - N/A   Desconocido
9:00 PM 42.8 ° F - 32.0 ° F 66% 29.95 pul 6.2 mi Variable 2.3 mph - N/A   Desconocido
9:30 PM 39.2 ° F - 32.0 ° F 75% 29.95 pul 6.2 mi Oeste 2.3 mph - N/A   Desconocido
10:00 PM 39.2 ° F 35.0 ° F 32.0 ° F 75% 29.95 pul 6.2 mi Oeste 5.8 mph - N/A   Desconocido
10:30 PM 41.0 ° F 34.3 ° F 32.0 ° F 70% 29.95 pul 6.2 mi ONO 11.5 mph - N/A   Desconocido
11:00 PM 41.0 ° F 34.3 ° F 32.0 ° F 70% 29.95 pul - Oeste 11.5 mph - N/A   Despejado
11:30 PM 41.0 ° F 34.7 ° F 33.8 ° F 76% 29.95 pul - Oeste 10.4 mph - N/A   Despejado